GW4864 Weather Reports


Display with metric or nautical units.
time (UTC)temp
F
wind
direction
speed
MPH
gust
MPH
rain 1hr
in
rain 24hr
in
rain mn
in
humidity
%
barometer
mb
20260505124551 62 337 1.0 4.0 0.00 0.00 0.00 61 1014.5
20260505123045 61 331 1.0 4.0 0.00 0.00 0.00 64 1014.6
20260505121548 59 0 1.0 3.0 0.00 0.00 0.00 66 1014.2
20260505120040 58 307 1.0 3.0 0.00 0.00 0.00 69 1014.5
20260505114539 55 0 0.0 1.0 0.00 0.00 0.00 77 1014.3
20260505113044 52 0 0.0 1.0 0.00 0.00 0.00 82 1013.9
20260505111544 50 0 0.0 0.0 0.00 0.00 0.00 83 1013.8
20260505101538 51 0 0.0 1.0 0.00 0.00 0.00 78 1013.3
20260505100045 52 317 0.0 2.0 0.00 0.00 0.00 77 1013.4
20260505094550 52 0 0.0 2.0 0.00 0.00 0.00 74 1013.3
20260505093051 53 0 0.0 3.0 0.00 0.00 0.00 73 1013.2
20260505091543 53 0 0.0 1.0 0.00 0.00 0.00 72 1013.3
20260505090038 53 330 0.0 1.0 0.00 0.00 0.00 72 1013.2
20260505084546 55 0 0.0 3.0 0.00 0.00 0.00 68 1013.1
20260505083100 57 327 0.0 4.0 0.00 0.00 0.00 64 1013.0
20260505081552 57 94 1.0 4.0 0.00 0.00 0.00 65 1012.9
20260505080049 57 117 1.0 3.0 0.00 0.00 0.00 67 1012.8
20260505074546 56 97 1.0 3.0 0.00 0.00 0.00 68 1012.9
20260505073040 55 133 1.0 3.0 0.00 0.00 0.00 73 1012.5
20260505071544 56 0 0.0 2.0 0.00 0.00 0.00 69 1012.4
20260505070100 58 90 0.0 3.0 0.00 0.00 0.00 65 1012.3
20260505064553 58 97 1.0 3.0 0.00 0.00 0.00 67 1012.3
20260505063048 54 106 0.0 2.0 0.00 0.00 0.00 75 1012.4
20260505061603 54 0 0.0 3.0 0.00 0.00 0.00 77 1012.6
20260505060053 53 0 0.0 1.0 0.00 0.00 0.00 78 1012.4
20260505054545 53 0 0.0 0.0 0.00 0.00 0.00 78 1012.4
20260505053045 54 0 0.0 2.0 0.00 0.00 0.00 78 1012.4
20260505051543 54 0 0.0 1.0 0.00 0.00 0.00 77 1012.5
20260505041552 54 0 0.0 0.0 0.00 0.00 0.00 78 1012.2
20260505040058 55 0 0.0 0.0 0.00 0.00 0.00 75 1012.1
20260505034545 55 0 0.0 0.0 0.00 0.00 0.00 75 1012.1
20260505033045 55 0 0.0 0.0 0.00 0.00 0.00 76 1012.1
20260505031550 56 0 0.0 0.0 0.00 0.00 0.00 74 1012.1
20260505030044 56 0 0.0 0.0 0.00 0.00 0.00 74 1012.0
20260505024542 57 0 0.0 0.0 0.00 0.00 0.00 72 1012.2
20260505023040 58 0 0.0 0.0 0.00 0.00 0.00 72 1012.2
20260505021548 58 0 0.0 0.0 0.00 0.00 0.00 71 1012.3
20260505020050 58 0 0.0 1.0 0.00 0.00 0.00 70 1012.2
20260505014548 59 0 0.0 0.0 0.00 0.00 0.00 68 1012.1
20260505013042 60 0 0.0 0.0 0.00 0.00 0.00 67 1012.1
20260505011549 61 0 0.0 1.0 0.00 0.00 0.00 65 1011.9
20260505010058 61 0 0.0 1.0 0.00 0.00 0.00 65 1011.8
20260505004547 62 0 0.0 1.0 0.00 0.00 0.00 65 1011.4
20260505003043 63 0 0.0 1.0 0.00 0.00 0.00 63 1011.3
20260505001542 64 0 0.0 1.0 0.00 0.00 0.00 61 1011.1
20260505000056 65 0 0.0 1.0 0.00 0.00 0.00 61 1011.1
20260504234538 66 0 0.0 3.0 0.00 0.00 0.00 60 1010.9
20260504233041 68 0 0.0 2.0 0.00 0.00 0.00 61 1011.0
20260504231541 69 0 0.0 3.0 0.00 0.00 0.00 56 1011.0
20260504230043 71 0 2.0 6.0 0.00 0.00 0.00 46 1011.4
20260504224541 73 310 2.0 7.0 0.00 0.00 0.00 41 1011.2
20260504223047 73 303 2.0 9.0 0.00 0.00 0.00 40 1010.9
20260504221547 76 17 1.0 8.0 0.00 0.00 0.00 39 1011.0
20260504220053 76 0 3.0 12.0 0.00 0.00 0.00 37 1011.0
20260504214544 77 338 1.0 8.0 0.00 0.00 0.00 36 1011.2
20260504213053 77 345 3.0 11.0 0.00 0.00 0.00 36 1011.1
20260504211542 78 71 2.0 12.0 0.00 0.00 0.00 39 1011.1
20260504210048 77 0 2.0 9.0 0.00 0.00 0.00 37 1011.0
20260504204550 77 145 2.0 6.0 0.00 0.00 0.00 36 1010.9
20260504203048 76 315 2.0 9.0 0.00 0.00 0.00 40 1011.1
20260504201542 75 295 2.0 5.0 0.00 0.00 0.00 37 1011.3
20260504200049 76 340 4.0 13.0 0.00 0.00 0.00 37 1011.7
20260504194544 76 34 3.0 5.0 0.00 0.00 0.00 39 1011.7
20260504193055 76 47 1.0 6.0 0.00 0.00 0.00 36 1011.9
20260504191543 74 310 1.0 9.0 0.00 0.00 0.00 41 1012.3
20260504190049 73 342 2.0 6.0 0.00 0.00 0.00 39 1012.5
20260504184543 74 311 3.0 9.0 0.00 0.00 0.00 37 1012.6
20260504183056 75 360 3.0 10.0 0.00 0.00 0.00 40 1012.9
20260504181543 74 325 2.0 11.0 0.00 0.00 0.00 37 1012.9
20260504180112 73 326 2.0 10.0 0.00 0.00 0.00 38 1013.3
20260504174542 72 350 2.0 11.0 0.00 0.00 0.00 37 1013.4
20260504173046 72 127 3.0 10.0 0.00 0.00 0.00 39 1013.6
20260504171548 72 280 2.0 8.0 0.00 0.00 0.00 40 1013.6